THY1KA LTAC-LTAI

Flight info

Callsign THY1KA
Flight time 1h 6m
Altitude 32000
Route HALIL1T/03L HALIL UW77 HISAR HISAR1M
Aircraft A320/M-SDE3FGHIRWY/LB1

Departure

Time 2026-05-04 16:44
Airport Esenboğa International Airport (LTAC)

Arrival

Time 2026-05-04 17:51
Airport Antalya International Airport (LTAI)
Time Latitude Longitude Altitude Speed Heading
2026-05-04 16:16 40.11701 32.99427 3113 ft 0 kts 168°
2026-05-04 16:32 40.11734 32.99417 3113 ft 2 kts 169°
2026-05-04 16:33 40.11766 32.99421 3113 ft 2 kts 212°
2026-05-04 16:33 40.11775 32.99450 3113 ft 1 kts 262°
2026-05-04 16:40 40.11769 32.99400 3113 ft 5 kts 258°
2026-05-04 16:40 40.11738 32.99273 3113 ft 10 kts 249°
2026-05-04 16:41 40.11757 32.99106 3113 ft 12 kts 326°
2026-05-04 16:41 40.11683 32.98858 3113 ft 11 kts 264°
2026-05-04 16:42 40.11812 32.98617 3113 ft 14 kts 309°
2026-05-04 16:43 40.11999 32.98576 3114 ft 40 kts 36°
2026-05-04 16:43 40.13085 32.99602 3125 ft 146 kts 36°
2026-05-04 16:43 40.13996 33.00478 3332 ft 169 kts 33°
2026-05-04 16:44 40.17400 33.04142 6010 ft 170 kts 40°
2026-05-04 16:45 40.19471 33.06263 6738 ft 211 kts 40°
2026-05-04 16:46 40.24002 33.06852 8314 ft 282 kts 322°
2026-05-04 16:46 40.26536 33.02704 9809 ft 300 kts 303°
2026-05-04 16:47 40.28943 32.97920 10552 ft 337 kts 304°
2026-05-04 16:47 40.31792 32.92830 11785 ft 352 kts 307°
2026-05-04 16:48 40.35162 32.84355 13893 ft 356 kts 271°
2026-05-04 16:48 40.34931 32.81148 14475 ft 354 kts 251°
2026-05-04 16:49 40.32212 32.75972 15616 ft 349 kts 212°
2026-05-04 16:49 40.27742 32.73539 16780 ft 352 kts 195°
2026-05-04 16:50 40.23041 32.71524 17986 ft 359 kts 195°
2026-05-04 16:50 40.18249 32.69461 19105 ft 365 kts 195°
2026-05-04 16:51 40.13394 32.67361 20252 ft 370 kts 195°
2026-05-04 16:51 40.10944 32.66306 20792 ft 372 kts 194°
2026-05-04 16:51 40.05985 32.64180 21832 ft 377 kts 194°
2026-05-04 16:52 40.00957 32.62033 22806 ft 384 kts 194°
2026-05-04 16:52 39.98405 32.60942 23303 ft 387 kts 194°
2026-05-04 16:53 39.93250 32.58732 24166 ft 392 kts 193°
2026-05-04 16:53 39.85424 32.55396 25503 ft 396 kts 193°
2026-05-04 16:54 39.82801 32.54280 25959 ft 398 kts 192°
2026-05-04 16:55 39.72194 32.49781 27670 ft 404 kts 191°
2026-05-04 16:55 39.66838 32.47506 28491 ft 407 kts 191°
2026-05-04 16:56 39.61427 32.45213 29310 ft 410 kts 191°
2026-05-04 16:56 39.53222 32.41754 30397 ft 417 kts 191°
2026-05-04 16:57 39.50457 32.40589 30708 ft 419 kts 191°
2026-05-04 16:57 39.44949 32.38269 31568 ft 417 kts 192°
2026-05-04 16:58 39.36860 32.34340 31945 ft 410 kts 201°
2026-05-04 16:58 39.34327 32.32674 31944 ft 408 kts 201°
2026-05-04 17:00 39.19096 32.22780 31955 ft 408 kts 201°
2026-05-04 17:01 39.06420 32.14564 31966 ft 408 kts 202°
2026-05-04 17:02 38.96291 32.08024 31973 ft 407 kts 202°
2026-05-04 17:03 38.88682 32.03121 31978 ft 408 kts 202°
2026-05-04 17:03 38.81054 31.98220 31985 ft 409 kts 203°
2026-05-04 17:04 38.70857 31.91685 31974 ft 410 kts 203°
2026-05-04 17:05 38.60618 31.85152 31973 ft 412 kts 203°
2026-05-04 17:06 38.52913 31.80249 31973 ft 413 kts 204°
2026-05-04 17:07 38.47697 31.76942 31983 ft 428 kts 204°
2026-05-04 17:07 38.45918 31.75815 31988 ft 434 kts 204°
2026-05-04 17:07 38.42291 31.73513 31706 ft 434 kts 204°
2026-05-04 17:07 38.39590 31.71795 31119 ft 433 kts 204°
2026-05-04 17:08 38.36903 31.70086 30538 ft 431 kts 203°
2026-05-04 17:08 38.31559 31.66703 29277 ft 427 kts 203°
2026-05-04 17:08 38.28906 31.65032 28606 ft 424 kts 203°
2026-05-04 17:09 38.26265 31.63369 28050 ft 420 kts 203°
2026-05-04 17:09 38.23673 31.61732 27656 ft 413 kts 203°
2026-05-04 17:09 38.21128 31.60122 26877 ft 406 kts 203°
2026-05-04 17:10 38.16109 31.56963 25755 ft 398 kts 203°
2026-05-04 17:10 38.08607 31.53909 25036 ft 367 kts 179°
2026-05-04 17:11 38.06035 31.53757 24697 ft 363 kts 179°
2026-05-04 17:11 38.03534 31.53603 24563 ft 360 kts 179°
2026-05-04 17:11 37.98522 31.53291 24400 ft 360 kts 180°
2026-05-04 17:12 37.96053 31.53131 24298 ft 360 kts 180°
2026-05-04 17:12 37.91052 31.52804 24081 ft 360 kts 180°
2026-05-04 17:13 37.83569 31.52333 23759 ft 358 kts 180°
2026-05-04 17:14 37.76099 31.51839 23423 ft 357 kts 182°
2026-05-04 17:14 37.73630 31.51548 23316 ft 357 kts 184°
2026-05-04 17:14 37.68700 31.50804 23105 ft 356 kts 185°
2026-05-04 17:15 37.66244 31.50421 22996 ft 355 kts 185°
2026-05-04 17:15 37.61345 31.49692 22789 ft 354 kts 184°
2026-05-04 17:16 37.56467 31.49005 22573 ft 352 kts 185°
2026-05-04 17:16 37.49163 31.47992 22259 ft 351 kts 185°
2026-05-04 17:17 37.46744 31.47657 22153 ft 350 kts 185°
2026-05-04 17:17 37.39486 31.46646 21815 ft 349 kts 186°
2026-05-04 17:18 37.37077 31.46313 21720 ft 348 kts 186°
2026-05-04 17:18 37.32280 31.45647 21497 ft 346 kts 187°
2026-05-04 17:19 37.27503 31.44978 21278 ft 344 kts 187°
2026-05-04 17:19 37.22753 31.44319 21064 ft 343 kts 188°
2026-05-04 17:20 37.18030 31.43668 20844 ft 340 kts 188°
2026-05-04 17:20 37.13847 31.41417 20635 ft 331 kts 226°
2026-05-04 17:20 37.12500 31.39115 20521 ft 328 kts 246°
2026-05-04 17:21 37.11888 31.34527 20319 ft 325 kts 277°
2026-05-04 17:21 37.12396 31.28896 20105 ft 325 kts 277°
2026-05-04 17:22 37.13036 31.25296 19937 ft 311 kts 300°
2026-05-04 17:22 37.13890 31.23892 19855 ft 304 kts 319°
2026-05-04 17:23 37.19733 31.22855 19525 ft 287 kts
2026-05-04 17:23 37.21719 31.23134 19460 ft 287 kts
2026-05-04 17:23 37.25673 31.23697 19341 ft 285 kts
2026-05-04 17:24 37.27643 31.23980 19269 ft 285 kts
2026-05-04 17:24 37.33530 31.24812 19023 ft 283 kts
2026-05-04 17:25 37.35487 31.25086 18942 ft 282 kts
2026-05-04 17:25 37.39381 31.25629 18778 ft 281 kts
2026-05-04 17:26 37.43262 31.26173 18616 ft 280 kts
2026-05-04 17:26 37.49052 31.26958 18350 ft 278 kts
2026-05-04 17:27 37.52400 31.24969 18159 ft 278 kts 307°
2026-05-04 17:27 37.53381 31.20267 17950 ft 284 kts 276°
2026-05-04 17:28 37.52012 31.15723 17750 ft 293 kts 221°
2026-05-04 17:29 37.46125 31.13944 17463 ft 298 kts 187°
2026-05-04 17:29 37.39961 31.13114 17179 ft 296 kts 187°
2026-05-04 17:30 37.33833 31.12259 16914 ft 294 kts 188°
2026-05-04 17:31 37.29768 31.11690 16737 ft 293 kts 188°
2026-05-04 17:31 37.23700 31.10842 16466 ft 292 kts 188°
2026-05-04 17:32 37.19680 31.10285 16268 ft 290 kts 189°
2026-05-04 17:33 37.14870 31.06821 15985 ft 272 kts 252°
2026-05-04 17:33 37.14535 31.04538 15916 ft 265 kts 276°
2026-05-04 17:34 37.15116 30.97645 15681 ft 264 kts 278°
2026-05-04 17:34 37.15309 30.95353 15593 ft 264 kts 278°
2026-05-04 17:35 37.13404 30.88967 14846 ft 271 kts 241°
2026-05-04 17:35 37.11373 30.85008 14352 ft 269 kts 240°
2026-05-04 17:35 37.10364 30.83042 14110 ft 268 kts 241°
2026-05-04 17:36 37.09353 30.81074 13871 ft 268 kts 240°
2026-05-04 17:36 37.08346 30.79115 13610 ft 266 kts 240°
2026-05-04 17:36 37.07349 30.77173 13341 ft 265 kts 240°
2026-05-04 17:36 37.06355 30.75234 13063 ft 264 kts 240°
2026-05-04 17:37 37.05370 30.73313 12908 ft 258 kts 240°
2026-05-04 17:37 37.04327 30.71472 12996 ft 264 kts 231°
2026-05-04 17:37 37.02955 30.69916 13006 ft 270 kts 217°
2026-05-04 17:37 37.01284 30.68785 12822 ft 278 kts 203°
2026-05-04 17:38 36.99404 30.68189 12493 ft 281 kts 188°
2026-05-04 17:38 36.97456 30.68032 12147 ft 281 kts 185°
2026-05-04 17:38 36.95514 30.67882 11878 ft 278 kts 186°
2026-05-04 17:38 36.93594 30.67723 11452 ft 274 kts 186°
2026-05-04 17:39 36.89855 30.67402 10600 ft 266 kts 186°
2026-05-04 17:39 36.88010 30.67243 10160 ft 265 kts 186°
2026-05-04 17:39 36.86178 30.67086 9702 ft 263 kts 186°
2026-05-04 17:40 36.84359 30.66931 9211 ft 261 kts 186°
2026-05-04 17:40 36.82551 30.66777 8703 ft 260 kts 187°
2026-05-04 17:40 36.80745 30.66625 8248 ft 258 kts 186°
2026-05-04 17:40 36.79006 30.66486 8018 ft 246 kts 186°
2026-05-04 17:41 36.77313 30.66351 7622 ft 242 kts 186°
2026-05-04 17:41 36.75634 30.66216 7186 ft 241 kts 187°
2026-05-04 17:41 36.73961 30.66077 6732 ft 240 kts 187°
2026-05-04 17:41 36.72296 30.65938 6278 ft 240 kts 187°
2026-05-04 17:42 36.70629 30.65798 5808 ft 240 kts 187°
2026-05-04 17:42 36.68962 30.65658 5253 ft 240 kts 188°
2026-05-04 17:42 36.67319 30.65521 5004 ft 230 kts 188°
2026-05-04 17:42 36.65744 30.65534 4725 ft 226 kts 171°
2026-05-04 17:43 36.64295 30.66259 4372 ft 226 kts 144°
2026-05-04 17:43 36.63207 30.67625 3981 ft 221 kts 117°
2026-05-04 17:43 36.62626 30.69356 3609 ft 214 kts 101°
2026-05-04 17:43 36.62411 30.71143 3270 ft 201 kts 75°
2026-05-04 17:44 36.62815 30.72690 3035 ft 181 kts 49°
2026-05-04 17:44 36.63653 30.73786 2997 ft 173 kts 26°
2026-05-04 17:44 36.64719 30.74367 2997 ft 165 kts
2026-05-04 17:44 36.65820 30.74773 2989 ft 166 kts 10°
2026-05-04 17:45 36.66929 30.75189 2994 ft 167 kts 10°
2026-05-04 17:45 36.68020 30.75599 3057 ft 166 kts 11°
2026-05-04 17:45 36.69161 30.76028 3019 ft 170 kts 11°
2026-05-04 17:45 36.70301 30.76414 3010 ft 169 kts
2026-05-04 17:46 36.71442 30.76668 3003 ft 169 kts
2026-05-04 17:46 36.72602 30.76863 2999 ft 168 kts
2026-05-04 17:46 36.73767 30.77035 3000 ft 169 kts
2026-05-04 17:46 36.74937 30.77200 2904 ft 166 kts
2026-05-04 17:47 36.76029 30.77353 2730 ft 152 kts
2026-05-04 17:47 36.77049 30.77493 2540 ft 144 kts
2026-05-04 17:47 36.78013 30.77625 2371 ft 135 kts
2026-05-04 17:47 36.78932 30.77750 2182 ft 132 kts 360°
2026-05-04 17:48 36.79837 30.77873 2001 ft 131 kts
2026-05-04 17:48 36.80741 30.77996 1822 ft 130 kts
2026-05-04 17:48 36.81643 30.78119 1652 ft 130 kts
2026-05-04 17:48 36.82543 30.78242 1469 ft 130 kts
2026-05-04 17:49 36.83438 30.78365 1285 ft 129 kts
2026-05-04 17:49 36.84330 30.78485 1077 ft 130 kts
2026-05-04 17:49 36.85177 30.78601 907 ft 130 kts
2026-05-04 17:49 36.86073 30.78725 730 ft 128 kts 359°
2026-05-04 17:50 36.86960 30.78844 567 ft 128 kts 358°
2026-05-04 17:50 36.87847 30.78970 380 ft 128 kts
2026-05-04 17:50 36.88730 30.79096 221 ft 127 kts 359°
2026-05-04 17:50 36.89529 30.79185 189 ft 91 kts
2026-05-04 17:51 36.89865 30.79247 194 ft 21 kts
2026-05-04 17:51 36.90062 30.79270 197 ft 32 kts
2026-05-04 17:51 36.90239 30.79298 192 ft 21 kts
2026-05-04 17:51 36.90365 30.79386 196 ft 13 kts 34°
2026-05-04 17:52 36.90434 30.79447 199 ft 13 kts 36°
2026-05-04 17:52 36.90504 30.79512 200 ft 12 kts 38°
2026-05-04 17:52 36.90581 30.79565 197 ft 14 kts
2026-05-04 17:52 36.90688 30.79578 203 ft 17 kts
2026-05-04 17:53 36.90811 30.79598 194 ft 19 kts
2026-05-04 17:53 36.90946 30.79617 194 ft 20 kts
2026-05-04 17:53 36.91090 30.79637 191 ft 22 kts
2026-05-04 17:53 36.91206 30.79687 197 ft 16 kts 59°
2026-05-04 17:54 36.91206 30.79802 202 ft 13 kts 92°
2026-05-04 17:54 36.91238 30.79883 191 ft 8 kts 12°
2026-05-04 17:54 36.91263 30.79947 196 ft 10 kts 97°
2026-05-04 17:54 36.91255 30.80011 191 ft 7 kts 99°
2026-05-04 17:55 36.91251 30.80059 191 ft 5 kts 96°
2026-05-04 17:55 36.91250 30.80067 191 ft 0 kts 96°